• In Uzbekistan
  • List of Countries
  • For 7 days
  • Water Temperature
  • Satellite Maps
  • Weather Map
  • Weather Widgets
  • user-avatar
    Login

    Hourly Weather Quito

    Today, 6 December, Tuesday

    Time Temperature Precipitation Wind Pressure Humidity
    00:00 +18°C° 0 mm 1 mps 621 mmHg 91%
    01:00 +18°C° 0 mm 1 mps 622 mmHg 92%
    02:00 +18°C° 0.1 mm 1 mps 621 mmHg 93%
    03:00 +18°C° 0.1 mm 1 mps 621 mmHg 94%
    04:00 +16°C° 0.1 mm 1 mps 621 mmHg 94%
    05:00 +16°C° 0.1 mm 0 mps 622 mmHg 90%
    06:00 +18°C° 0.1 mm 0 mps 622 mmHg 86%
    07:00 +19°C° 0 mm 0 mps 623 mmHg 81%
    08:00 +23°C° 0.3 mm 1 mps 624 mmHg 72%
    09:00 +24°C° 0.3 mm 1 mps 624 mmHg 64%
    10:00 +26°C° 0.3 mm 2 mps 625 mmHg 55%
    11:00 +26°C° 0.8 mm 2 mps 624 mmHg 55%
    12:00 +27°C° 0.8 mm 2 mps 624 mmHg 54%
    13:00 +27°C° 0 mm 2 mps 624 mmHg 53%
    14:00 +26°C° 0.8 mm 2 mps 623 mmHg 56%
    15:00 +26°C° 0.8 mm 2 mps 623 mmHg 60%
    16:00 +25°C° 0.8 mm 1 mps 622 mmHg 63%
    17:00 +23°C° 1.2 mm 1 mps 622 mmHg 72%
    18:00 +21°C° 1.2 mm 1 mps 622 mmHg 80%
    19:00 +19°C° 1.2 mm 1 mps 621 mmHg 89%
    20:00 +18°C° 1.4 mm 1 mps 622 mmHg 91%
    21:00 +18°C° 1.4 mm 1 mps 622 mmHg 93%
    22:00 +17°C° 1.4 mm 2 mps 622 mmHg 95%
    23:00 +16°C° 0.1 mm 2 mps 622 mmHg 96%

    Tomorrow, 7 December, Wednesday

    Time Temperature Precipitation Wind Pressure Humidity
    00:00 +16°C° 0.1 mm 2 mps 621 mmHg 96%
    01:00 +16°C° 0.1 mm 2 mps 621 mmHg 97%
    02:00 +16°C° 0 mm 2 mps 621 mmHg 97%
    03:00 +15°C° 0 mm 1 mps 621 mmHg 96%
    04:00 +15°C° 0 mm 1 mps 621 mmHg 96%
    05:00 +16°C° 0.5 mm 1 mps 621 mmHg 95%
    06:00 +18°C° 0.5 mm 1 mps 622 mmHg 93%
    07:00 +19°C° 0.5 mm 1 mps 623 mmHg 91%
    08:00 +21°C° 0.3 mm 1 mps 623 mmHg 79%
    09:00 +23°C° 0.3 mm 1 mps 624 mmHg 67%
    10:00 +26°C° 0.3 mm 2 mps 625 mmHg 55%
    11:00 +26°C° 0.2 mm 2 mps 624 mmHg 52%
    12:00 +27°C° 0.2 mm 2 mps 624 mmHg 48%
    13:00 +28°C° 0.2 mm 2 mps 623 mmHg 45%
    14:00 +27°C° 0.7 mm 2 mps 623 mmHg 53%
    15:00 +26°C° 0.7 mm 1 mps 622 mmHg 61%
    16:00 +25°C° 0.7 mm 1 mps 622 mmHg 69%
    17:00 +23°C° 1.4 mm 1 mps 621 mmHg 76%
    18:00 +21°C° 1.4 mm 1 mps 621 mmHg 82%
    19:00 +18°C° 1.4 mm 1 mps 621 mmHg 89%
    20:00 +18°C° 1 mm 1 mps 621 mmHg 89%
    21:00 +18°C° 1 mm 1 mps 621 mmHg 90%
    22:00 +18°C° 1 mm 1 mps 622 mmHg 90%
    23:00 +18°C° 0.3 mm 1 mps 622 mmHg 90%

    Day after tomorrow, 8 December, Thursday

    Time Temperature Precipitation Wind Pressure Humidity
    00:00 +16°C° 0.3 mm 1 mps 621 mmHg 90%
    01:00 +16°C° 0.3 mm 1 mps 621 mmHg 90%
    02:00 +16°C° 0 mm 1 mps 621 mmHg 91%
    03:00 +15°C° 0 mm 0 mps 621 mmHg 91%
    04:00 +14°C° 0 mm 0 mps 621 mmHg 91%
    05:00 +16°C° 0 mm 0 mps 621 mmHg 90%
    06:00 +17°C° 0 mm 0 mps 622 mmHg 88%
    07:00 +18°C° 0 mm 0 mps 623 mmHg 86%
    08:00 +21°C° 0.1 mm 1 mps 624 mmHg 79%
    09:00 +23°C° 0.1 mm 1 mps 624 mmHg 72%
    10:00 +24°C° 0.1 mm 1 mps 625 mmHg 64%
    11:00 +24°C° 0.3 mm 1 mps 624 mmHg 64%
    12:00 +25°C° 0.3 mm 1 mps 624 mmHg 64%
    13:00 +25°C° 0.3 mm 2 mps 623 mmHg 63%
    14:00 +24°C° 0.3 mm 2 mps 623 mmHg 66%
    15:00 +24°C° 0.3 mm 2 mps 622 mmHg 69%
    16:00 +23°C° 0.3 mm 2 mps 622 mmHg 72%
    17:00 +21°C° 0.1 mm 2 mps 622 mmHg 80%
    18:00 +20°C° 0.1 mm 1 mps 622 mmHg 88%
    19:00 +19°C° 0.1 mm 1 mps 621 mmHg 95%
    20:00 +18°C° 0.3 mm 1 mps 622 mmHg 96%
    21:00 +18°C° 0.3 mm 1 mps 622 mmHg 96%
    22:00 +18°C° 0.3 mm 1 mps 623 mmHg 97%
    23:00 +16°C° 0 mm 1 mps 622 mmHg 97%

    9 December, Friday

    Time Temperature Precipitation Wind Pressure Humidity
    00:00 +16°C° 0 mm 1 mps 622 mmHg 97%
    01:00 +16°C° 0 mm 1 mps 621 mmHg 97%
    02:00 +16°C° 0 mm 1 mps 621 mmHg 97%
    03:00 +15°C° 0 mm 1 mps 621 mmHg 97%
    04:00 +15°C° 0 mm 1 mps 620 mmHg 97%
    05:00 +16°C° 0 mm 1 mps 621 mmHg 94%
    06:00 +18°C° 0 mm 1 mps 622 mmHg 92%
    07:00 +19°C° 0 mm 1 mps 623 mmHg 89%
    08:00 +20°C° 0.2 mm 0 mps 624 mmHg 78%
    09:00 +23°C° 0.2 mm 0 mps 625 mmHg 67%
    10:00 +25°C° 0.2 mm 0 mps 625 mmHg 56%
    11:00 +25°C° 0.8 mm 0 mps 625 mmHg 56%
    12:00 +27°C° 0.8 mm 1 mps 624 mmHg 56%
    13:00 +27°C° 0.8 mm 1 mps 623 mmHg 56%
    14:00 +26°C° 1.4 mm 1 mps 623 mmHg 63%
    15:00 +25°C° 1.4 mm 1 mps 622 mmHg 69%
    16:00 +24°C° 1.4 mm 1 mps 622 mmHg 76%
    17:00 +22°C° 0.7 mm 1 mps 621 mmHg 82%
    18:00 +21°C° 0.7 mm 1 mps 621 mmHg 87%
    19:00 +19°C° 0.7 mm 1 mps 621 mmHg 93%
    20:00 +18°C° 0.1 mm 1 mps 621 mmHg 94%
    21:00 +18°C° 0.1 mm 1 mps 622 mmHg 94%
    22:00 +18°C° 0.1 mm 1 mps 622 mmHg 95%
    23:00 +18°C° 0.1 mm 1 mps 622 mmHg 95%

    10 December, Saturday

    Time Temperature Precipitation Wind Pressure Humidity
    00:00 +16°C° 0.1 mm 1 mps 621 mmHg 95%
    01:00 +16°C° 0.1 mm 1 mps 621 mmHg 95%
    02:00 +16°C° 0 mm 1 mps 620 mmHg 95%
    03:00 +16°C° 0 mm 1 mps 620 mmHg 95%
    04:00 +15°C° 0 mm 1 mps 620 mmHg 96%
    05:00 +16°C° 0.5 mm 1 mps 621 mmHg 95%
    06:00 +18°C° 0.5 mm 1 mps 621 mmHg 94%
    07:00 +17°C° 0.5 mm 2 mps 622 mmHg 93%
    08:00 +21°C° 0.1 mm 1 mps 623 mmHg 81%
    09:00 +23°C° 0.1 mm 1 mps 624 mmHg 69%
    10:00 +26°C° 0.1 mm 1 mps 624 mmHg 58%
    11:00 +26°C° 1.1 mm 1 mps 623 mmHg 60%
    12:00 +26°C° 1.1 mm 1 mps 623 mmHg 62%
    13:00 +26°C° 1.1 mm 1 mps 622 mmHg 64%
    14:00 +25°C° 1.9 mm 1 mps 622 mmHg 68%
    15:00 +25°C° 1.9 mm 1 mps 621 mmHg 73%
    16:00 +24°C° 1.9 mm 1 mps 621 mmHg 77%
    17:00 +22°C° 1.2 mm 1 mps 621 mmHg 82%
    18:00 +21°C° 1.2 mm 1 mps 621 mmHg 87%
    19:00 +19°C° 1.2 mm 1 mps 621 mmHg 92%
    20:00 +19°C° 1.9 mm 1 mps 621 mmHg 93%
    21:00 +18°C° 1.9 mm 1 mps 621 mmHg 94%
    22:00 +18°C° 1.9 mm 1 mps 622 mmHg 95%
    23:00 +18°C° 0.5 mm 1 mps 621 mmHg 95%

    11 December, Sunday

    Time Temperature Precipitation Wind Pressure Humidity
    00:00 +18°C° 0.5 mm 1 mps 621 mmHg 96%
    01:00 +16°C° 0.5 mm 1 mps 620 mmHg 97%
    02:00 +16°C° 0.2 mm 1 mps 620 mmHg 97%
    03:00 +16°C° 0.2 mm 1 mps 620 mmHg 97%
    04:00 +16°C° 0.2 mm 1 mps 620 mmHg 97%
    05:00 +16°C° 0.4 mm 1 mps 621 mmHg 97%
    06:00 +18°C° 0.4 mm 1 mps 621 mmHg 96%
    07:00 +18°C° 0.4 mm 1 mps 622 mmHg 96%
    08:00 +19°C° 0.8 mm 1 mps 622 mmHg 93%
    09:00 +19°C° 0.8 mm 1 mps 622 mmHg 91%
    10:00 +20°C° 0.8 mm 1 mps 623 mmHg 89%
    11:00 +20°C° 1.3 mm 1 mps 622 mmHg 88%
    12:00 +19°C° 1.3 mm 2 mps 621 mmHg 88%
    13:00 +19°C° 1.3 mm 3 mps 621 mmHg 87%
    14:00 +19°C° 0.5 mm 3 mps 621 mmHg 85%
    15:00 +19°C° 0.5 mm 3 mps 621 mmHg 83%
    16:00 +19°C° 0.5 mm 3 mps 621 mmHg 81%
    17:00 +18°C° 0.2 mm 3 mps 621 mmHg 86%
    18:00 +17°C° 0.2 mm 2 mps 621 mmHg 90%
    19:00 +16°C° 0.2 mm 2 mps 621 mmHg 94%
    20:00 +16°C° 0 mm 2 mps 621 mmHg 95%
    21:00 +15°C° 0 mm 2 mps 621 mmHg 95%
    22:00 +15°C° 0 mm 2 mps 621 mmHg 95%
    23:00 +15°C° 0 mm 2 mps 621 mmHg 96%
    Show more